Notices

What’s New in latest Release from January 14th 2021:

·       In Historical Hourly Data Report, users can switch between Local Standard Time (LST) and Universal Time Coordinates (UTC) time.

·       In Historical Hourly Data Report, we have an addition of a new column to display hourly precipitation data for the stations where the data are available, from 2001 onwards.

·       Expanded the Search Options of the Canadian Historical Weather Radar, users now able to select 24 hours (1 image every hour) image viewing duration.

Please note that the IDF dataset is available through this link: Intensity-Duration-Frequency (IDF) Files .

Hourly Data Report for November 24, 2020

MUSKOKA
ONTARIO
Current Station Operator: NAVCAN

44°58'29.000" N
79°18'12.000" W
281.90 m
6115529
71532
YQA

Download Data

Hourly Data (November 2020)
Hourly Data Report for November 24, 2020
TIME
LST
Temp Definition
°C
Dew Point Definition
°C
Rel Hum Definition
%
Precip. Amount Definition
mm

Wind Dir Definition
10's deg

Wind Spd Definition
km/h
Visibility Definition
km
Stn Press Definition
kPa
Hmdx Definition


Wind Chill Definition


Weather Definition


00:00 -1.2 -2.3 92 LegendMM 33 18 9.7 98.96   -6 Snow
01:00 -2.1 -3.5 90 LegendMM 33 18 16.1 99.02   -8 LegendNANA
02:00 -3.0 -4.7 88 LegendMM 33 21 16.1 99.09   -9 LegendNANA
03:00 -3.9 -5.9 86 LegendMM 32 18 16.1 99.15   -10 LegendNANA
04:00 -5.1 -7.1 86 LegendMM 32 13 16.1 99.23   -10 LegendNANA
05:00 -6.0 -7.8 87 LegendMM 35 8 16.1 99.28   -10 LegendNANA
06:00 -6.8 -8.8 86 LegendMM 36 11 16.1 99.37   -12 LegendNANA
07:00 -6.6 -8.6 86 LegendMM 36 8 16.1 99.42   -10 LegendNANA
08:00 -6.5 -8.9 83 LegendMM 2 5 16.1 99.50   -9 LegendNANA
09:00 -6.3 -8.7 83 LegendMM LegendMM 4 16.1 99.54   -8 LegendNANA
10:00 -6.0 -8.8 81 LegendMM LegendMM 4 16.1 99.59   -8 LegendNANA
11:00 -6.0 -9.0 80 LegendMM 9 8 16.1 99.55   -10 LegendNANA
12:00 -5.3 -8.2 80 LegendMM LegendMM 8 16.1 99.48   -9 LegendNANA
13:00 -4.4 -7.9 77 LegendMM 15 11 16.1 99.40   -9 LegendNANA
14:00 -4.3 -7.8 77 LegendMM 12 5 16.1 99.38   -6 LegendNANA
15:00 -4.3 -7.8 77 LegendMM 15 11 16.1 99.35   -9 LegendNANA
16:00 -4.1 -6.9 81 LegendMM 13 8 16.1 99.29   -8 LegendNANA
17:00 -4.3 -6.9 82 LegendMM 13 8 16.1 99.29   -8 LegendNANA
18:00 -4.4 -6.6 85 LegendMM 12 5 16.1 99.25   -7 LegendNANA
19:00 -4.3 -6.9 82 LegendMM 12 9 16.1 99.18   -8 LegendNANA
20:00 -4.3 -6.9 82 LegendMM 13 9 16.1 99.12   -8 LegendNANA
21:00 -4.3 -6.7 83 LegendMM 13 13 16.1 99.04   -9 LegendNANA
22:00 -4.1 -6.4 84 LegendMM 13 15 16.1 98.95   -9 LegendNANA
23:00 -4.5 -5.9 90 LegendMM 11 11 2.0 98.83   -9 Snow

Notes on Data Quality.

Legend

  • E = Estimated
  • M = Missing
  • NA = Not Available*
  • [empty] = Indicates an unobserved value
Date modified: